Date,TemperatureHighF,TemperatureAvgF,TemperatureLowF,DewpointHighF,DewpointAvgF,DewpointLowF,HumidityHigh,HumidityAvg,HumidityLow,PressureMaxIn,PressureMinIn,WindSpeedMaxMPH,WindSpeedAvgMPH,GustSpeedMaxMPH,PrecipitationSumIn
2013-1-1,36.0,33.3,29.8,35.5,32.8,29.3,98,98,98,29.97,29.87,6,1,0,0.06
2013-1-2,30.7,25.8,21.9,23.4,19.6,15.7,98,79,59,30.13,30.02,4,2,0,0.00
2013-1-3,36.5,30.7,13.5,25.3,22.8,13.0,98,73,61,30.12,30.04,8,4,0,0.01
2013-1-4,35.2,31.4,28.0,30.6,27.3,24.5,98,85,65,30.15,30.05,8,4,0,0.01
2013-1-5,40.1,30.8,23.2,33.7,28.1,22.7,98,91,63,30.26,30.01,7,1,0,0.06
2013-1-6,41.5,36.9,33.3,38.5,34.2,31.2,98,90,68,30.05,29.85,7,2,0,0.10
2013-1-7,35.8,30.9,21.4,35.3,29.7,20.9,98,96,80,30.31,30.06,7,2,0,0.00
2013-1-8,49.5,30.7,18.5,41.2,27.5,18.0,98,90,58,30.20,30.08,4,1,0,0.01
2013-1-9,47.5,36.3,25.5,47.0,35.8,25.0,98,98,98,30.29,30.03,5,1,0,0.05
2013-1-10,48.4,35.3,27.0,46.4,34.6,26.5,98,97,73,30.40,30.04,6,0,0,0.01
2013-1-11,60.1,50.0,35.6,59.5,49.4,35.1,98,98,98,30.03,29.73,7,1,0,0.11
2013-1-12,68.0,58.2,51.4,67.4,57.6,50.9,98,98,98,29.88,29.74,5,1,0,0.00
2013-1-13,70.0,59.6,50.9,69.4,59.0,50.4,98,98,98,29.76,29.65,10,2,0,0.20
2013-1-14,52.3,41.7,35.1,51.8,41.2,34.6,98,98,98,30.14,29.82,7,2,0,0.12
2013-1-15,35.8,33.4,31.3,35.3,32.9,30.8,98,98,98,30.10,29.84,6,2,0,0.12
2013-1-16,39.0,37.2,34.9,38.5,36.7,34.4,98,98,98,29.80,29.65,7,2,0,0.32
2013-1-17,34.3,31.8,29.5,33.8,31.3,29.0,98,98,98,29.95,29.88,3,0,0,0.00
2013-1-18,36.0,29.3,22.6,31.9,20.5,16.0,98,71,48,30.29,29.96,8,4,0,0.01
2013-1-19,56.1,43.7,29.8,25.0,20.8,15.6,58,41,27,30.06,29.70,10,4,0,0.00
2013-1-20,45.5,35.9,26.4,34.8,18.2,13.5,66,50,31,29.91,29.67,12,3,0,0.00
2013-1-21,32.7,25.5,14.9,27.9,16.5,1.5,98,70,48,29.88,29.67,14,3,0,0.00
2013-1-22,17.4,11.4,7.2,11.7,1.1,-1.8,98,64,45,30.07,29.85,11,4,0,0.00
2013-1-23,19.6,13.0,3.9,16.9,5.4,0.8,98,75,45,30.11,29.83,8,1,0,0.00
2013-1-24,24.6,16.7,8.1,17.3,11.8,6.7,98,83,49,30.31,29.81,9,2,0,0.00
2013-1-25,26.6,17.2,8.2,26.1,15.1,6.0,98,92,63,30.29,29.77,3,0,0,0.00
2013-1-26,32.2,27.4,23.4,31.7,25.8,17.8,98,94,76,30.19,29.94,3,1,0,0.00
2013-1-27,37.8,25.7,15.4,32.5,22.5,14.9,98,88,69,30.30,30.12,0,0,0,0.17
2013-1-28,54.5,49.2,33.4,53.9,48.7,32.9,98,98,98,29.96,29.82,4,0,0,0.40
2013-1-29,70.2,63.3,56.5,69.6,62.7,55.9,98,98,98,29.73,29.64,4,1,0,0.04
2013-1-30,57.4,55.8,52.9,56.8,55.2,52.4,98,98,98,29.26,29.05,4,2,0,0.40
2013-1-31,48.4,30.2,25.0,47.9,26.7,13.7,98,88,56,29.63,29.04,24,7,0,0.08
2013-2-1,25.7,16.9,11.7,25.2,12.9,4.5,98,85,60,30.12,29.57,14,4,0,0.00
2013-2-2,27.0,18.8,9.0,26.5,16.7,7.4,98,92,61,30.10,29.73,9,2,0,0.00
2013-2-3,33.6,26.3,19.9,33.1,25.8,19.4,98,98,98,29.82,29.56,11,2,0,0.00
2013-2-4,32.4,23.9,18.9,30.6,21.9,18.4,98,92,69,29.86,29.62,8,2,0,0.00
2013-2-5,33.3,32.3,31.5,32.8,31.8,31.0,98,98,98,29.70,29.66,0,0,0,0.02
2013-2-6,37.0,33.0,24.4,36.5,32.5,23.9,98,98,98,30.08,29.88,5,1,0,0.03
2013-2-7,48.0,30.6,18.9,45.0,29.5,18.4,98,96,70,30.07,29.78,4,0,0,0.15
2013-2-8,41.9,34.5,27.0,41.4,34.0,26.5,98,98,98,29.94,29.57,11,4,0,0.14
2013-2-9,37.2,28.4,19.4,28.8,24.6,18.9,98,87,55,30.16,29.94,8,2,0,0.00
2013-2-10,55.9,35.4,15.3,55.3,34.7,14.8,98,97,69,30.12,29.75,9,1,0,0.00
2013-2-11,65.1,51.5,41.7,60.7,40.7,24.3,98,72,27,29.75,29.45,16,4,0,0.03
2013-2-12,50.9,40.8,27.0,34.0,29.5,25.0,98,66,42,29.85,29.65,9,4,0,0.00
2013-2-13,42.3,32.5,24.4,41.8,32.0,23.9,98,98,98,29.70,29.41,6,0,0,0.00
2013-2-14,47.1,36.9,29.8,43.7,35.6,29.3,98,95,71,29.75,29.64,9,2,0,0.16
2013-2-15,41.7,35.4,30.2,41.2,34.9,29.7,98,98,98,29.83,29.67,7,1,0,0.02
2013-2-16,32.4,27.3,19.8,31.5,24.7,17.8,98,91,66,29.80,29.68,7,2,0,0.01
2013-2-17,25.3,20.4,15.6,22.3,17.4,11.2,98,89,70,30.03,29.68,11,4,0,0.00
2013-2-18,50.2,28.6,9.0,41.6,23.6,8.6,98,85,48,30.08,29.67,6,1,0,0.01
2013-2-19,46.4,38.9,27.1,45.9,37.9,26.6,98,96,71,29.73,29.45,13,5,0,0.14
2013-2-20,27.3,22.6,20.5,26.8,20.8,14.5,98,93,71,29.99,29.72,11,5,0,0.00
2013-2-21,29.1,23.2,19.9,27.9,22.5,19.4,98,97,84,30.09,29.95,7,2,0,0.00
2013-2-22,45.0,34.6,21.7,44.5,34.1,21.2,98,98,98,30.03,29.73,5,0,0,0.02
2013-2-23,56.8,42.1,32.7,55.5,41.0,32.2,98,96,76,29.74,29.57,7,1,0,0.00
2013-2-24,34.3,30.6,27.3,33.8,30.1,26.8,98,98,98,29.91,29.72,8,2,0,0.00
2013-2-25,47.3,35.8,24.6,38.7,31.7,24.1,98,87,61,29.98,29.79,11,2,0,0.00
2013-2-26,42.1,39.9,37.2,41.6,38.3,33.7,98,94,74,29.66,29.33,16,5,0,0.36
2013-2-27,42.1,37.9,34.3,41.6,37.4,33.8,98,98,98,29.46,29.41,5,2,0,0.27
2013-2-28,35.6,34.0,32.9,35.1,33.5,32.4,98,98,98,29.57,29.40,7,3,0,0.06
2013-3-1,35.8,32.3,28.8,35.3,31.8,28.3,98,98,98,29.72,29.57,7,2,0,0.01
2013-3-2,32.2,28.2,25.9,31.7,27.7,25.4,98,98,98,29.72,29.65,8,2,0,0.01
2013-3-3,31.1,26.7,24.3,29.7,25.8,23.8,98,97,78,29.78,29.68,8,4,0,0.01
2013-3-4,42.3,29.1,23.0,29.7,23.3,18.5,98,83,42,29.90,29.77,9,3,0,0.00
2013-3-5,54.9,36.9,22.6,41.7,25.3,13.7,98,70,21,29.85,29.38,9,2,0,0.01
2013-3-6,42.6,36.3,33.3,42.1,35.8,32.8,98,98,98,29.87,29.37,7,1,0,0.35
2013-3-7,42.1,36.4,33.1,41.6,35.9,32.6,98,98,98,30.04,29.86,8,2,0,0.00
2013-3-8,38.5,33.6,25.2,38.0,33.1,24.7,98,98,98,30.17,30.03,10,3,0,0.00
2013-3-9,63.3,37.9,21.0,47.1,32.0,20.5,98,83,35,30.17,29.94,5,1,0,0.00
2013-3-10,74.3,52.9,32.0,50.8,40.7,31.5,98,69,37,29.94,29.76,6,1,0,0.00
2013-3-11,66.4,58.1,50.2,64.2,51.7,42.5,98,81,58,29.78,29.48,8,2,0,0.11
2013-3-12,53.8,41.5,37.6,53.2,41.0,37.1,98,98,98,29.78,29.52,8,3,0,0.24
2013-3-13,38.3,33.2,28.0,37.8,32.7,27.5,98,98,96,29.91,29.70,11,4,0,0.02
2013-3-14,42.6,31.7,26.1,33.7,26.7,20.6,98,85,42,30.01,29.87,12,4,0,0.00
2013-3-15,54.1,40.1,23.2,46.8,35.5,22.7,98,86,54,29.91,29.57,9,3,0,0.00
2013-3-16,57.9,46.0,38.3,57.3,45.4,37.8,98,98,98,29.71,29.35,6,1,0,0.02
2013-3-17,40.8,36.1,31.6,38.9,34.7,31.1,98,95,81,29.94,29.71,6,2,0,0.00
2013-3-18,46.0,39.1,33.4,45.5,38.6,32.9,98,98,98,29.89,29.46,14,3,0,0.89
2013-3-19,50.7,43.0,34.2,47.2,33.7,20.9,98,74,32,29.75,29.45,16,6,0,0.06
2013-3-20,43.9,35.3,28.0,32.5,23.5,17.9,91,63,46,29.77,29.54,12,4,0,0.00
2013-3-21,30.7,25.7,19.2,26.6,18.6,10.4,98,77,44,29.70,29.61,10,4,0,0.00
2013-3-22,45.1,31.5,24.8,31.1,24.8,18.3,98,81,36,29.78,29.69,11,4,0,0.00
2013-3-23,51.4,32.3,19.9,37.4,23.5,19.4,98,77,31,29.81,29.71,8,2,0,0.00
2013-3-24,38.5,32.7,26.8,38.0,32.2,26.3,98,98,98,29.63,29.55,2,1,0,0.00
2013-3-26,34.2,34.2,34.2,33.7,33.7,33.7,98,98,98,29.68,29.68,3,3,0,0.00
2013-3-27,43.2,40.0,38.1,39.6,38.1,35.8,98,93,80,29.95,29.88,6,3,0,0.00
2013-3-28,44.1,39.9,36.5,43.6,39.4,36.0,98,98,98,30.03,29.92,5,1,0,0.00
2013-3-29,55.4,43.7,35.1,48.2,34.7,25.1,98,76,35,30.05,29.92,8,1,0,0.00